Flag for Paraguay Weather past 2 weeks in Ciudad del Este, Paraguay

Now
68 °F

Sunny.


Feels Like: 68 °F
Forecast: 60 / 79 °F
Wind: 12 mph from East

Location: Foz Do Iguacu Aeroporto

Current Time: Jul 29, 2015 at 9:38:30 AM

Latest Report: Jul 29, 2015 at 9:00 AM


Visibility: 10 mi

Pressure: 30.15 "Hg

Humidity: 73%

Dew point: 59 °F

Location of Ciudad del EsteLocation

Historic Weather in Ciudad del Este — Graph

°F

Ciudad del Este temperature yesterday

Maximum temperature yesterday: 77 °F (at 3:00 PM)
Minimum temperature yesterday: 57 °F (at 4:00 AM)
Average temperature yesterday: 66 °F

Past Weeks' High & Low Weather Summary

 TemperatureHumidityPressure
High81 °F (Jul 18, 2:00 PM)100% (Jul 14, 9:00 AM)30.24 "Hg (Jul 14, 9:00 AM)
Low32 °F (Jul 26, 2:00 AM)41% (Jul 15, 12:00 AM)29.89 "Hg (Jul 19, 3:00 PM)
Average61 °F88%30.09 "Hg
* Reported Jul 14 8:00 AM — Jul 29 8:00 AM, Ciudad del Este, Weather by CustomWeather, © 2015

Note: Actual official high and low records may vary slightly from our data, if they occured in-between our weather recording intervals... More about our weather records

Advertising

Ciudad del Este weather history for previous 24 hours

 ConditionsComfort  
Time TempWeatherWind HumidityBarometerVisibility
8:00 AM
Wed, Jul 29
64 °FSunny.12 mph83%30.12 "Hg10 mi
7:00 AM63 °FSunny.9 mph83%30.12 "Hg10 mi
6:00 AM61 °FSunny.5 mph88%30.09 "Hg10 mi
5:00 AM61 °FClear.8 mph88%30.07 "Hg10 mi
4:00 AM61 °FClear.6 mph88%30.04 "Hg10 mi
3:00 AM59 °FClear.5 mph94%30.04 "Hg10 mi
2:00 AM61 °FClear.7 mph88%30.04 "Hg10 mi
1:00 AM64 °FClear.7 mph83%30.04 "Hg10 mi
12:00 AM64 °FClear.6 mph83%30.07 "Hg10 mi
11:00 PM
Tue, Jul 28
63 °FClear.5 mph94%30.07 "Hg10 mi
10:00 PM64 °FClear.7 mph88%30.04 "Hg10 mi
9:00 PM64 °FClear.2 mph88%30.01 "Hg10 mi
8:00 PM68 °FClear.7 mph78%30.01 "Hg10 mi
7:00 PM70 °FClear.9 mph78%30.01 "Hg10 mi
6:00 PM66 °FClear.7 mph88%30.01 "Hg10 mi
5:00 PM73 °FClear.6 mph69%30.01 "Hg10 mi
4:00 PM77 °FSunny.8 mph61%30.01 "Hg10 mi
3:00 PM77 °FSunny.9 mph61%30.01 "Hg10 mi
2:00 PM75 °FSunny.6 mph61%30.04 "Hg10 mi
1:00 PM73 °FSunny.7 mph61%30.04 "Hg10 mi
12:00 PM72 °FSunny.6 mph65%30.07 "Hg10 mi
11:00 AM70 °FSunny.12 mph69%30.09 "Hg10 mi
10:00 AM66 °FSunny.8 mph73%30.09 "Hg10 mi
9:00 AM63 °FSunny.12 mph83%30.09 "Hg10 mi
Weather by CustomWeather, © 2015

See weather overviewHow to use our weather pages